Weather History for KDEN - April, 2013

Change the Weather History Date:

Monday, April 29, 2013

  Actual Average Record
Temperature  
Mean Temperature 61 °F 51 °F  
Max Temperature 80 °F 65 °F 83 °F (1948)
Min Temperature 41 °F 37 °F 12 °F (1877)
Degree Days  
Heating Degree Days 4 14  
Month to date heating degree days 676 515  
Since 1 July heating degree days 5788 5717  
Cooling Degree Days 0 0  
Month to date cooling degree days 0 0  
Year to date cooling degree days 0 0  
Growing Degree Days 12 (Base 50)    
Moisture  
Dew Point 23 °F    
Average Humidity 35    
Maximum Humidity 62    
Minimum Humidity 8    
Precipitation  
Precipitation T in 0.07 in 1.43 in (1900)
Month to date precipitation 1.87 1.64  
Year to date precipitation 4.42 3.34  
Snow  
Snow 0.00 in - - ()
Month to date snowfall 20.4  
Since 1 July snowfall 75  
Snow Depth 0.00 in    
Sea Level Pressure  
Sea Level Pressure 29.58 in    
Wind  
Wind Speed 13 mph (SW)    
Max Wind Speed 28 mph    
Max Gust Speed 33 mph    
Visibility 10 miles    
Events Rain    
T = Trace of Precipitation, MM = Missing Value Source: NWS Daily Summary

Daily Weather History Graph

Daily Weather History Graph

Search for Another Location

Airport or City:

Trip Planner

Search our weather history database for the weather conditions in past years. The results will help you decide how hot, cold, wet, or windy it might be!

Date:

Astronomy

Apr. 29, 2013 Rise Set
Actual Time 6:01 AM MDT 7:51 PM MDT
Civil Twilight 5:32 AM MDT 8:20 PM MDT
Nautical Twilight 4:56 AM MDT 8:55 PM MDT
Astronomical Twilight 4:18 AM MDT 9:34 PM MDT
Moon No Moon Rise 9:24 AM MDT (4/29)
Length of Visible Light 14h 48m
Length of Day
13h 50m
Waning Gibbous, 79% of the Moon is Illuminated
Apr 29
Waning Gibbous
May 2
Last Quarter
May 9
New
May 17
First Quarter
May 24
Full

Hourly Weather History & Observations

Time (MDT) Temp. Windchill Dew Point Humidity Pressure Visibility Wind Dir Wind Speed Gust Speed Precip Events Conditions
12:53 AM 55.9 °F - 34.0 °F 44% 29.77 in 10.0 mi East 6.9 mph - N/A   Overcast
1:53 AM 54.0 °F - 36.0 °F 51% 29.78 in 10.0 mi NE 16.1 mph - 0.00 in Rain Light Rain
2:53 AM 50.0 °F - 34.0 °F 54% 29.75 in 10.0 mi SE 17.3 mph - 0.00 in   Mostly Cloudy
3:53 AM 48.9 °F - 30.9 °F 50% 29.74 in 10.0 mi SSE 12.7 mph - N/A   Mostly Cloudy
4:53 AM 45.0 °F 39.3 °F 32.0 °F 60% 29.72 in 10.0 mi SSE 11.5 mph - N/A   Clear
5:53 AM 44.1 °F 36.8 °F 30.9 °F 60% 29.71 in 10.0 mi South 16.1 mph - N/A   Scattered Clouds
6:53 AM 46.0 °F 40.2 °F 33.1 °F 61% 29.72 in 10.0 mi South 12.7 mph - N/A   Partly Cloudy
7:53 AM 57.9 °F - 32.0 °F 37% 29.67 in 10.0 mi South 20.7 mph - N/A   Partly Cloudy
8:53 AM 64.9 °F - 30.9 °F 28% 29.64 in 10.0 mi South 21.9 mph 28.8 mph N/A   Partly Cloudy
9:53 AM 70.0 °F - 23.0 °F 17% 29.61 in 10.0 mi SW 13.8 mph 19.6 mph N/A   Scattered Clouds
10:53 AM 73.0 °F - 21.0 °F 14% 29.58 in 10.0 mi SW 10.4 mph 17.3 mph N/A   Scattered Clouds
11:53 AM 73.9 °F - 17.1 °F 12% 29.58 in 10.0 mi West 9.2 mph - N/A   Scattered Clouds
12:53 PM 75.9 °F - 19.9 °F 12% 29.56 in 10.0 mi WNW 10.4 mph 19.6 mph N/A   Scattered Clouds
1:53 PM 77.0 °F - 18.0 °F 11% 29.53 in 10.0 mi WNW 17.3 mph 27.6 mph N/A   Mostly Cloudy
2:53 PM 78.1 °F - 16.0 °F 10% 29.51 in 10.0 mi SW 12.7 mph 18.4 mph N/A   Mostly Cloudy
3:53 PM 78.1 °F - 14.0 °F 9% 29.49 in 10.0 mi West 17.3 mph 28.8 mph N/A   Mostly Cloudy
4:53 PM 77.0 °F - 15.1 °F 10% 29.49 in 10.0 mi West 16.1 mph - N/A   Mostly Cloudy
5:53 PM 75.0 °F - 15.1 °F 10% 29.48 in 10.0 mi WNW 6.9 mph - N/A   Mostly Cloudy
6:53 PM 73.0 °F - 17.1 °F 12% 29.48 in 10.0 mi West 3.5 mph - N/A   Mostly Cloudy
7:53 PM 72.0 °F - 16.0 °F 12% 29.44 in 10.0 mi WSW 8.1 mph - N/A   Mostly Cloudy
8:53 PM 70.0 °F - 17.1 °F 13% 29.44 in 10.0 mi West 11.5 mph - N/A   Mostly Cloudy
9:53 PM 66.0 °F - 21.9 °F 19% 29.45 in 10.0 mi SSW 10.4 mph - N/A   Mostly Cloudy
10:53 PM 66.0 °F - 19.9 °F 17% 29.43 in 10.0 mi SSW 11.5 mph - N/A   Mostly Cloudy
11:53 PM 63.0 °F - 19.9 °F 19% 29.43 in 10.0 mi WSW 5.8 mph - N/A   Mostly Cloudy